Regional Weather Roundup
Issued by NWS State College, PA

Home | Current Version | Previous Version | Text Only | Print | Product List | Glossary On
Versions: 1 2 3 4 5 6 7 8 9 10 11 12 13 14 15 16 17 18 19 20 21 22 23 24 25 26 27 28 29 30 31 32 33 34 35 36 37 38 39 40 41 42 43 44 45 46 47 48 49 50
000
ASUS41 KCTP 272010
RWRCTP

REGIONAL WEATHER ROUNDUP
NATIONAL WEATHER SERVICE STATE COLLEGE PA
300 PM EST SAT DEC 27 2014

Note: "fair" indicates few or no clouds below 12,000 feet with no
significant weather and/or obstructions to visibility.

* = STATION THAT DOES NOT REPORT PRECIPITATION /E.G. RAIN...SNOW...ETC/
    THUNDER OR FOG.

PAZ002>004-007>009-013>016-020>023-029>032-272100-
WESTERN PENNSYLVANIA

CITY           SKY/WX    TMP DP  RH WIND       PRES   REMARKS
ERIE           CLOUDY    57  37  47 S23G30    29.96F
MEADVILLE      CLOUDY    53  36  52 S8G23     30.00F
FRANKLIN*      CLOUDY    52  37  58 S18       30.05F
NEW CASTLE       N/A     56  34  43 S8        30.07F
BEAVER COUNTY  PTSUNNY   55  30  38 SW12G21   30.06F
BUTLER*        MOSUNNY   55  34  44 S14       30.09S
PITTSBURGH INT PTSUNNY   57  29  34 S9        30.07F
PITTSBURGH     MOSUNNY   56  28  34 S14       30.08F
INDIANA*       SUNNY     55  36  47 SW9       30.12F
LATROBE        MOSUNNY   57  32  38 SW13      30.10F
WASHINGTON CO* NOT AVBL
$$

PAZ004>006-010>012-017>019-024>028-033>037-041-042-045-046-049>053-272100-
CENTRAL PENNSYLVANIA

CITY           SKY/WX    TMP DP  RH WIND       PRES   REMARKS
BRADFORD       SUNNY     47  35  63 S7        30.04F
DUBOIS         MOSUNNY   49  34  56 S6        30.06F
CLEARFIELD     MOSUNNY   51  35  54 SW3       30.09F
JOHNSTOWN      SUNNY     54  32  43 S10       30.08F
ALTOONA        SUNNY     56  35  45 S7        30.11F
STATE COLLEGE  SUNNY     54  34  47 S5        30.12F
WILLIAMSPORT   PTSUNNY   50  33  52 CALM      30.14F
SELINSGROVE    SUNNY     55  35  47 S7        30.15F
FT INDIANTOWN  SUNNY     56  34  42 S6        30.16S
CAPITAL CITY   SUNNY     57  34  41 E6        30.16F
HARRISBURG     PTSUNNY   56  33  42 SE6       30.16S
YORK           SUNNY     60  27  28 S6        30.16F
$$

PAZ038>040-043-044-047-048-054-055-060>062-067>071-272100-
EASTERN PENNSYLVANIA

CITY           SKY/WX    TMP DP  RH WIND       PRES   REMARKS
SCRANTON       SUNNY     52  33  48 SW7       30.13F
MOUNT POCONO   SUNNY     49  33  54 W10       30.12F
ALLENTOWN      SUNNY     56  33  42 SW7       30.15F
QUAKERTOWN*    CLEAR     55  32  41 SW6       30.17S
READING        SUNNY     57  33  40 SW5       30.16S
LANCASTER      SUNNY     54  33  45 E5        30.17S
COATESVILLE    FAIR      55  32  41 SW3       30.19R
POTTSTOWN      SUNNY     55  30  38 S5        30.18S
BLUE BELL      SUNNY     57  32  38 CALM      30.17R
DOYLESTOWN     SUNNY     54  31  41 SW7       30.16F
WILLOW GROVE   NOT AVBL
NORTH PHILA    SUNNY     57  30  35 VRB6      30.20S
PHILADELPHIA   PTSUNNY   56  32  40 S6        30.20S
$$



USA.gov is the U.S. government's official web portal to all federal, state and local government web resources and services.